EA6DT Weather Reports


time (UTC)temp
F
wind
direction
speed
knots
gust
knots
rain 1hr
in
rain 24hr
in
rain mn
in
humidity
%
barometer
mb
20260505200334 63 360 2.6 0.0 0.00 0.00 0.00 90 1011.9
20260505195858 63 360 2.6 0.0 0.00 0.00 0.00 90 1011.9
20260505195404 63 360 2.6 0.0 0.00 0.00 0.00 90 1011.8
20260505194833 63 360 3.5 0.0 0.00 0.00 0.00 89 1011.7
20260505194343 63 360 3.5 0.0 0.00 0.00 0.00 89 1011.5
20260505193833 63 360 3.5 0.0 0.00 0.00 0.00 89 1011.5
20260505193405 63 360 2.6 0.0 0.00 0.00 0.00 88 1011.5
20260505192850 63 360 1.7 0.0 0.00 0.00 0.00 88 1011.4
20260505192339 63 360 1.7 0.0 0.00 0.00 0.00 88 1011.3
20260505191830 64 360 2.6 0.0 0.00 0.00 0.00 87 1011.2
20260505191341 64 360 3.5 0.0 0.00 0.00 0.00 87 1011.1
20260505190846 64 360 3.5 0.0 0.00 0.00 0.00 87 1011.0
20260505190331 64 360 4.3 0.0 0.00 0.00 0.00 86 1010.9
20260505185835 64 360 5.2 0.0 0.00 0.00 0.00 86 1010.9
20260505185327 64 360 5.2 0.0 0.00 0.00 0.00 85 1010.8
20260505184836 65 360 4.3 0.0 0.00 0.00 0.00 85 1010.8
20260505184403 65 360 4.3 0.0 0.00 0.00 0.00 84 1010.8
20260505183834 65 360 4.3 0.0 0.00 0.00 0.00 83 1010.8
20260505183326 65 360 5.2 0.0 0.00 0.00 0.00 82 1010.7
20260505182835 65 360 5.2 0.0 0.00 0.00 0.00 81 1010.7
20260505182327 66 360 5.2 0.0 0.00 0.00 0.00 80 1010.7
20260505181833 66 360 4.3 0.0 0.00 0.00 0.00 80 1010.7
20260505181344 66 360 4.3 0.0 0.00 0.00 0.00 79 1010.7
20260505180835 66 360 4.3 0.0 0.00 0.00 0.00 78 1010.8
20260505180344 67 360 5.2 0.0 0.00 0.00 0.00 78 1010.7
20260505175829 67 251 5.2 0.0 0.00 0.00 0.00 77 1010.7
20260505175355 67 270 4.3 0.0 0.00 0.00 0.00 76 1010.6
20260505174905 67 266 4.3 0.0 0.00 0.00 0.00 75 1010.6
20260505174334 67 259 5.2 0.0 0.00 0.00 0.00 75 1010.6
20260505173844 67 276 5.2 0.0 0.00 0.00 0.00 74 1010.6
20260505173331 67 256 5.2 0.0 0.00 0.00 0.00 74 1010.6
20260505172841 67 248 5.2 0.0 0.00 0.00 0.00 74 1010.7
20260505172328 68 235 5.2 0.0 0.00 0.00 0.00 74 1010.6
20260505171837 68 257 6.1 0.0 0.00 0.00 0.00 74 1010.6
20260505171344 68 257 5.2 0.0 0.00 0.00 0.00 75 1010.6
20260505170834 68 262 5.2 0.0 0.00 0.00 0.00 76 1010.7
20260505170344 68 247 5.2 0.0 0.00 0.00 0.00 76 1010.7
20260505165827 68 251 5.2 0.0 0.00 0.00 0.00 76 1010.8
20260505165338 68 226 6.1 0.0 0.00 0.00 0.00 76 1010.8
20260505164843 68 239 6.1 0.0 0.00 0.00 0.00 75 1010.8
20260505164333 68 262 5.2 0.0 0.00 0.00 0.00 73 1010.9
20260505163843 68 283 5.2 0.0 0.00 0.00 0.00 73 1010.8
20260505163334 69 277 5.2 0.0 0.00 0.00 0.00 73 1010.7
20260505162825 69 264 5.2 0.0 0.00 0.00 0.00 72 1010.7
20260505162331 69 237 6.1 0.0 0.00 0.00 0.00 73 1010.8
20260505161841 69 269 6.1 0.0 0.00 0.00 0.00 73 1010.7
20260505161333 69 219 6.1 0.0 0.00 0.00 0.00 73 1010.7
20260505160903 69 219 5.2 0.0 0.00 0.00 0.00 72 1010.8
20260505160331 69 246 5.2 0.0 0.00 0.00 0.00 72 1010.7
20260505153334 70 298 5.2 0.0 0.00 0.00 0.00 72 1010.7
20260505152844 70 265 6.1 0.0 0.00 0.00 0.00 72 1010.7
20260505151843 70 267 6.1 0.0 0.00 0.00 0.00 72 1010.8
20260505151330 70 240 6.1 0.0 0.00 0.00 0.00 72 1010.8
20260505150840 70 259 6.1 0.0 0.00 0.00 0.00 71 1010.8
20260505150351 70 266 5.2 0.0 0.00 0.00 0.00 70 1010.8
20260505140334 71 294 5.2 0.0 0.00 0.00 0.00 64 1010.9
20260505124853 69 284 7.0 0.0 0.00 0.00 0.00 71 1011.7
20260505124343 69 233 7.0 0.0 0.00 0.00 0.00 70 1011.9
20260505123343 70 237 6.1 0.0 0.00 0.00 0.00 68 1011.8
20260505122834 70 259 6.1 0.0 0.00 0.00 0.00 67 1011.8
20260505122345 71 259 5.2 0.0 0.00 0.00 0.00 68 1011.8
20260505121836 70 231 6.1 0.0 0.00 0.00 0.00 68 1011.9
20260505121401 70 281 6.1 0.0 0.00 0.00 0.00 69 1012.0
20260505120831 70 348 6.1 0.0 0.00 0.00 0.00 68 1011.9
20260505120401 70 246 5.2 0.0 0.00 0.00 0.00 67 1012.0
20260505115845 71 264 5.2 0.0 0.00 0.00 0.00 67 1012.0
20260505115333 70 212 5.2 0.0 0.00 0.00 0.00 67 1012.0
20260505114839 70 255 6.1 0.0 0.00 0.00 0.00 68 1012.1
20260505114350 71 256 6.1 0.0 0.00 0.00 0.00 66 1012.1
20260505113839 71 326 5.2 0.0 0.00 0.00 0.00 68 1012.1
20260505113406 71 251 5.2 0.0 0.00 0.00 0.00 67 1012.2
20260505112831 71 252 5.2 0.0 0.00 0.00 0.00 68 1012.3
20260505112343 71 269 5.2 0.0 0.00 0.00 0.00 68 1012.4
20260505111833 70 275 6.1 0.0 0.00 0.00 0.00 68 1012.4
20260505111343 70 255 6.1 0.0 0.00 0.00 0.00 68 1012.5
20260505110834 70 262 6.1 0.0 0.00 0.00 0.00 69 1012.5
20260505101835 69 300 6.1 0.0 0.00 0.00 0.00 70 1012.4
20260505101326 69 269 5.2 0.0 0.00 0.00 0.00 68 1012.5
20260505100852 69 257 5.2 0.0 0.00 0.00 0.00 71 1012.4
20260505100402 69 334 5.2 0.0 0.00 0.00 0.00 72 1012.4
20260505095844 69 239 6.1 0.0 0.00 0.00 0.00 72 1012.5
20260505095334 69 304 5.2 0.0 0.00 0.00 0.00 72 1012.5
20260505094840 69 300 5.2 0.0 0.00 0.00 0.00 72 1012.5
20260505094331 69 273 4.3 0.0 0.00 0.00 0.00 73 1012.5
20260505093841 69 316 5.2 0.0 0.00 0.00 0.00 73 1012.5
20260505093331 68 239 4.3 0.0 0.00 0.00 0.00 74 1012.5
20260505092919 68 283 4.3 0.0 0.00 0.00 0.00 74 1012.5
20260505092344 68 236 4.3 0.0 0.00 0.00 0.00 75 1012.5
20260505091835 68 286 4.3 0.0 0.00 0.00 0.00 75 1012.6
20260505091333 68 235 4.3 0.0 0.00 0.00 0.00 74 1012.5
20260505090845 68 274 4.3 0.0 0.00 0.00 0.00 73 1012.5
20260505090332 68 338 4.3 0.0 0.00 0.00 0.00 74 1012.5
20260505085835 68 269 4.3 0.0 0.00 0.00 0.00 74 1012.5
20260505085345 68 278 2.6 0.0 0.00 0.00 0.00 76 1012.4
20260505084835 67 244 3.5 0.0 0.00 0.00 0.00 78 1012.4
20260505084406 67 231 4.3 0.0 0.00 0.00 0.00 78 1012.3
20260505083831 67 300 4.3 0.0 0.00 0.00 0.00 79 1012.4
20260505083341 66 297 4.3 0.0 0.00 0.00 0.00 80 1012.4
20260505082831 67 298 4.3 0.0 0.00 0.00 0.00 79 1012.5
20260505082342 67 247 3.5 0.0 0.00 0.00 0.00 79 1012.5
20260505081852 66 255 3.5 0.0 0.00 0.00 0.00 80 1012.4
20260505081338 66 254 3.5 0.0 0.00 0.00 0.00 81 1012.5
20260505080828 66 271 3.5 0.0 0.00 0.00 0.00 82 1012.5
20260505080339 66 259 3.5 0.0 0.00 0.00 0.00 81 1012.6
20260505075843 66 259 3.5 0.0 0.00 0.00 0.00 82 1012.6
20260505075332 65 227 3.5 0.0 0.00 0.00 0.00 82 1012.6
20260505074838 65 246 2.6 0.0 0.00 0.00 0.00 83 1012.6
20260505074330 65 242 3.5 0.0 0.00 0.00 0.00 84 1012.6
20260505073840 65 232 3.5 0.0 0.00 0.00 0.00 84 1012.6
20260505073330 64 196 2.6 0.0 0.00 0.00 0.00 85 1012.5
20260505072856 65 253 2.6 0.0 0.00 0.00 0.00 86 1012.6
20260505072326 65 298 2.6 0.0 0.00 0.00 0.00 87 1012.5
20260505071836 65 299 2.6 0.0 0.00 0.00 0.00 89 1012.5
20260505071326 64 223 2.6 0.0 0.00 0.00 0.00 89 1012.6
20260505070836 64 218 1.7 0.0 0.00 0.00 0.00 90 1012.6
20260505070327 63 259 1.7 0.0 0.00 0.00 0.00 91 1012.7
20260505065827 63 264 2.6 0.0 0.00 0.00 0.00 92 1012.7
20260505065339 63 219 2.6 0.0 0.00 0.00 0.00 92 1012.7
20260505064829 63 243 2.6 0.0 0.00 0.00 0.00 93 1012.7
20260505064339 63 250 1.7 0.0 0.00 0.00 0.00 94 1012.7
20260505063905 62 360 0.9 0.0 0.00 0.00 0.00 94 1012.7
20260505063336 62 360 0.9 0.0 0.00 0.00 0.00 94 1012.7
20260505062827 62 360 0.9 0.0 0.00 0.00 0.00 94 1012.7
20260505062336 62 204 0.9 0.0 0.00 0.00 0.00 95 1012.7
20260505061847 61 228 0.9 0.0 0.00 0.00 0.00 94 1012.6
20260505061332 61 221 1.7 0.0 0.00 0.00 0.00 95 1012.6
20260505060843 61 360 1.7 0.0 0.00 0.00 0.00 95 1012.7
20260505060332 61 205 1.7 0.0 0.00 0.00 0.00 95 1012.7
20260505055836 61 219 1.7 0.0 0.00 0.00 0.00 95 1012.7
20260505055327 61 360 0.9 0.0 0.00 0.00 0.00 95 1012.7
20260505054852 61 360 0.9 0.0 0.00 0.00 0.00 95 1012.7
20260505054341 60 360 0.9 0.0 0.00 0.00 0.00 95 1012.7
20260505053831 60 203 1.7 0.0 0.00 0.00 0.00 95 1012.7
20260505053343 60 360 0.9 0.0 0.00 0.00 0.00 95 1012.8
20260505052833 60 228 0.9 0.0 0.00 0.00 0.00 95 1012.7
20260505052340 60 228 0.9 0.0 0.00 0.00 0.00 95 1012.6
20260505051850 60 203 0.9 0.0 0.00 0.00 0.00 95 1012.7
20260505051337 60 221 0.9 0.0 0.00 0.00 0.00 95 1012.6
20260505050827 60 215 1.7 0.0 0.00 0.00 0.00 94 1012.7
20260505050334 60 224 1.7 0.0 0.00 0.00 0.00 94 1012.6
20260505041401 60 221 0.9 0.0 0.00 0.00 0.00 94 1012.6
20260505040831 60 250 0.9 0.0 0.00 0.00 0.00 94 1012.7
20260505040342 60 262 0.9 0.0 0.00 0.00 0.00 94 1012.7
20260505035826 60 245 0.9 0.0 0.00 0.00 0.00 94 1012.6
20260505035333 61 360 0.0 0.0 0.00 0.00 0.00 94 1012.7
20260505034843 61 271 0.9 0.0 0.00 0.00 0.00 94 1012.6
20260505034334 61 259 1.7 0.0 0.00 0.00 0.00 94 1012.7
20260505033844 61 262 1.7 0.0 0.00 0.00 0.00 94 1012.7
20260505033334 61 259 1.7 0.0 0.00 0.00 0.00 94 1012.8
20260505032840 61 360 1.7 0.0 0.00 0.00 0.00 94 1012.8
20260505032332 61 267 1.7 0.0 0.00 0.00 0.00 94 1012.8
20260505031843 61 259 1.7 0.0 0.00 0.00 0.00 94 1012.8
20260505031333 61 233 1.7 0.0 0.00 0.00 0.00 94 1012.8
20260505030844 61 266 1.7 0.0 0.00 0.00 0.00 94 1012.9
20260505030336 61 222 1.7 0.0 0.00 0.00 0.00 94 1012.9
20260505025835 61 360 2.6 0.0 0.00 0.00 0.00 94 1012.9
20260505025346 61 258 2.6 0.0 0.00 0.00 0.00 94 1013.0
20260505024856 61 257 2.6 0.0 0.00 0.00 0.00 94 1013.0
20260505024346 61 360 2.6 0.0 0.00 0.00 0.00 94 1013.0
20260505023832 61 360 2.6 0.0 0.00 0.00 0.00 94 1013.0
20260505023342 61 360 3.5 0.0 0.00 0.00 0.00 94 1013.0
20260505022833 61 360 3.5 0.0 0.00 0.00 0.00 94 1013.0
20260505022344 61 360 4.3 0.0 0.00 0.00 0.00 94 1013.0
20260505021834 61 272 3.5 0.0 0.00 0.00 0.00 94 1013.1
20260505021340 62 360 4.3 0.0 0.00 0.00 0.00 94 1013.1
20260505020830 62 360 4.3 0.0 0.00 0.00 0.00 94 1013.1
20260505020341 62 360 4.3 0.0 0.00 0.00 0.00 94 1013.1
20260505015844 62 360 4.3 0.0 0.00 0.00 0.00 94 1013.1
20260505015355 62 360 3.5 0.0 0.00 0.00 0.00 94 1013.2
20260505014841 62 360 4.3 0.0 0.00 0.00 0.00 94 1013.2
20260505014332 62 360 4.3 0.0 0.00 0.00 0.00 94 1013.3
20260505013842 62 260 4.3 0.0 0.00 0.00 0.00 94 1013.3
20260505013332 62 360 4.3 0.0 0.00 0.00 0.00 94 1013.3
20260505012842 61 360 4.3 0.0 0.00 0.00 0.00 94 1013.3
20260505012329 62 360 3.5 0.0 0.00 0.00 0.00 94 1013.3
20260505011840 62 360 4.3 0.0 0.00 0.00 0.00 94 1013.3
20260505011329 62 360 4.3 0.0 0.00 0.00 0.00 94 1013.4
20260505010839 62 238 4.3 0.0 0.00 0.00 0.00 94 1013.4
20260505010330 62 360 4.3 0.0 0.00 0.00 0.00 94 1013.6
20260505005850 62 360 4.3 0.0 0.00 0.00 0.00 94 1013.6
20260505005359 62 360 3.5 0.0 0.00 0.00 0.00 94 1013.7
20260505004848 62 248 3.5 0.0 0.00 0.00 0.00 94 1013.7
20260505004336 62 360 3.5 0.0 0.00 0.00 0.00 94 1013.8
20260505003842 62 257 3.5 0.0 0.00 0.00 0.00 94 1013.9
20260505003412 62 360 3.5 0.0 0.00 0.00 0.00 94 1013.9
20260505002837 62 360 3.5 0.0 0.00 0.00 0.00 94 1013.9
20260505002328 62 360 3.5 0.0 0.00 0.00 0.00 94 1013.9
20260505001838 62 360 2.6 0.0 0.00 0.00 0.00 94 1013.9
20260505001341 62 360 2.6 0.0 0.00 0.00 0.00 94 1013.9
20260505000831 62 267 2.6 0.0 0.00 0.00 0.00 94 1013.9
20260505000402 62 360 3.5 0.0 0.00 0.00 0.00 94 1014.0
20260504235835 61 244 3.5 0.0 0.00 0.00 0.00 94 1014.0
20260504235346 61 360 3.5 0.0 0.00 0.00 0.00 94 1014.0
20260504234836 61 360 3.5 0.0 0.00 0.00 0.00 94 1014.0
20260504234407 61 360 3.5 0.0 0.00 0.00 0.00 94 1014.0
20260504233835 61 221 3.5 0.0 0.00 0.00 0.00 94 1014.1
20260504233342 61 360 2.6 0.0 0.00 0.00 0.00 94 1014.1
20260504232851 61 360 2.6 0.0 0.00 0.00 0.00 94 1014.1
20260504232342 61 245 2.6 0.0 0.00 0.00 0.00 94 1014.1
20260504231853 61 360 2.6 0.0 0.00 0.00 0.00 94 1014.1
20260504231358 61 236 2.6 0.0 0.00 0.00 0.00 94 1014.1
20260504230827 61 246 3.5 0.0 0.00 0.00 0.00 94 1014.0
20260504230339 61 360 2.6 0.0 0.00 0.00 0.00 94 1014.1
20260504225844 61 360 2.6 0.0 0.00 0.00 0.00 94 1014.0
20260504225335 61 360 2.6 0.0 0.00 0.00 0.00 94 1014.0
20260504224841 61 360 3.5 0.0 0.00 0.00 0.00 94 1014.1
20260504224332 61 360 3.5 0.0 0.00 0.00 0.00 93 1014.1
20260504223842 61 253 2.6 0.0 0.00 0.00 0.00 93 1014.2
20260504223332 62 360 2.6 0.0 0.00 0.00 0.00 93 1014.1
20260504222842 62 212 2.6 0.0 0.00 0.00 0.00 93 1014.1
20260504222329 62 250 2.6 0.0 0.00 0.00 0.00 93 1014.1
20260504221839 62 248 2.6 0.0 0.00 0.00 0.00 93 1014.1
20260504221349 62 237 2.6 0.0 0.00 0.00 0.00 93 1014.1
20260504220838 62 247 2.6 0.0 0.00 0.00 0.00 93 1014.1
20260504220329 62 360 2.6 0.0 0.00 0.00 0.00 93 1014.2
20260504215828 62 360 2.6 0.0 0.00 0.00 0.00 93 1014.1
20260504215358 62 259 2.6 0.0 0.00 0.00 0.00 93 1014.2
20260504214828 62 360 2.6 0.0 0.00 0.00 0.00 93 1014.2
20260504214338 62 251 2.6 0.0 0.00 0.00 0.00 93 1014.2
20260504213829 62 360 3.5 0.0 0.00 0.00 0.00 93 1014.2
20260504213335 62 258 2.6 0.0 0.00 0.00 0.00 93 1014.2
20260504212845 62 360 2.6 0.0 0.00 0.00 0.00 92 1014.3
20260504212335 62 242 2.6 0.0 0.00 0.00 0.00 92 1014.2
20260504211845 63 241 3.5 0.0 0.00 0.00 0.00 92 1014.2
20260504211336 63 360 3.5 0.0 0.00 0.00 0.00 92 1014.1
20260504210902 63 233 2.6 0.0 0.00 0.00 0.00 92 1014.1
20260504210331 63 246 2.6 0.0 0.00 0.00 0.00 92 1014.2
20260504205834 63 237 2.6 0.0 0.00 0.00 0.00 92 1014.1
20260504205345 63 268 1.7 0.0 0.00 0.00 0.00 92 1014.2
20260504204832 63 255 2.6 0.0 0.00 0.00 0.00 92 1014.2
20260504204343 63 248 2.6 0.0 0.00 0.00 0.00 91 1014.2
20260504203852 63 225 2.6 0.0 0.00 0.00 0.00 91 1014.2
20260504203342 63 232 2.6 0.0 0.00 0.00 0.00 91 1014.1
20260504202832 63 214 2.6 0.0 0.00 0.00 0.00 91 1014.0
20260504202339 63 253 2.6 0.0 0.00 0.00 0.00 90 1013.9
20260504201829 63 360 2.6 0.0 0.00 0.00 0.00 90 1013.8
20260504201341 63 360 3.5 0.0 0.00 0.00 0.00 90 1013.8
20260504200852 63 360 3.5 0.0 0.00 0.00 0.00 90 1013.8